This is the latest recevied weather packets stored in our database for station/object KC4JES. If no packets are shown the sender has not sent any weather packets the latest 10 day(s).
| Time | Temp. | Humidity | Pressure | Rain* | Wind** | Luminosity | Snow |
|---|---|---|---|---|---|---|---|
| 1777603846 | 21.67° C | 96% | 1011.7 hPa | 0 mm | - | 0 W/m² | - |
| 1777603542 | 21.67° C | 96% | 1011.8 hPa | 0 mm | - | 0 W/m² | - |
| 1777603238 | 21.67° C | 96% | 1011.8 hPa | 0 mm | - | 0 W/m² | - |
| 1777602934 | 21.67° C | 96% | 1011.6 hPa | 0 mm | - | 0 W/m² | - |
| 1777602630 | 21.67° C | 96% | 1011.8 hPa | 0 mm | - | 0 W/m² | - |
| 1777602324 | 22.22° C | 96% | 1011.6 hPa | 0 mm | - | 0 W/m² | - |
| 1777602021 | 22.22° C | 96% | 1011.5 hPa | 0 mm | - | 0 W/m² | - |
| 1777601716 | 22.22° C | 96% | 1011.5 hPa | 0 mm | - | 0 W/m² | - |
| 1777601411 | 22.22° C | 96% | 1011.4 hPa | 0 mm | - | 0 W/m² | - |
| 1777601108 | 22.22° C | 96% | 1011.2 hPa | 0 mm | - | 0 W/m² | - |
| 1777600806 | 22.78° C | 96% | 1011.3 hPa | 0 mm | - | 0 W/m² | - |
| 1777600501 | 22.78° C | 96% | 1011.4 hPa | 0 mm | - | 0 W/m² | - |
| 1777600196 | 22.78° C | 96% | 1011.6 hPa | 0 mm | - | 0 W/m² | - |
| 1777599893 | 22.78° C | 96% | 1011.2 hPa | 0 mm | - | 0 W/m² | - |
| 1777599589 | 22.78° C | 96% | 1011.3 hPa | 0 mm | - | 0 W/m² | - |
| 1777599287 | 22.78° C | 96% | 1010.9 hPa | 0 mm | - | 0 W/m² | - |
| 1777598982 | 22.78° C | 96% | 1011 hPa | 0 mm | - | 0 W/m² | - |
| 1777598679 | 22.78° C | 96% | 1011 hPa | 0 mm | - | 0 W/m² | - |
| 1777598375 | 22.78° C | 96% | 1011.2 hPa | 0 mm | - | 0 W/m² | - |
| 1777598074 | 23.33° C | 95% | 1010.6 hPa | 0.51 mm | - | 0 W/m² | - |
| 1777597773 | 23.33° C | 95% | 1010.7 hPa | 1.27 mm | - | 0 W/m² | - |
| 1777597468 | 22.78° C | 95% | 1010.9 hPa | 1.27 mm | - | 0 W/m² | - |
| 1777597164 | 23.33° C | 95% | 1010.7 hPa | 2.29 mm | - | 0 W/m² | - |
| 1777596860 | 23.33° C | 94% | 1010.5 hPa | 4.32 mm | - | 0 W/m² | - |
| 1777596556 | 23.33° C | 94% | 1010.5 hPa | 3.56 mm | - | 0 W/m² | - |
* Rain latest hour (hover to see other rain measurements)
** Current wind speed in m/s (hover to see current wind gust speed)